Temperature
12 11 11 11 11 10 10 10 9 9 10 10 10 10 10 11 10 10 10 10 10 10 9 9 8 8 7 6 6 5 5 5 4 2 -0 -1 -2 -2
12 11 11 11 11 10 10 10 10 9 9 10 10 10 10 10 10 10 10 10 9 9 9 8 8 7 6 6 6 5 5 4 3 1 -0 -2 -2 -2
11 11 11 11 11 11 10 10 10 9 9 9 9 9 10 10 10 10 9 9 9 9 8 8 7 7 6 6 5 5 5 4 3 1 -1 -2 -3 -3
10 10 10 11 11 11 10 10 10 10 9 9 9 9 9 9 9 9 9 9 8 8 8 8 8 7 6 6 5 5 4 4 2 -0 -1 -2 -3 -4
9 9 9 10 10 10 10 10 10 10 9 9 9 9 9 9 9 9 8 8 8 8 8 8 7 6 5 5 5 4 4 2 0 -1 -2 -3 -4 -4
8 8 9 9 9 9 9 10 10 10 10 9 9 9 9 9 9 8 8 8 8 8 8 7 7 6 5 5 4 4 2 1 -1 -2 -3 -4 -5 -5
7 7 8 8 8 8 8 9 9 10 9 9 9 9 9 9 8 8 8 8 7 7 7 7 6 5 5 5 4 3 1 -0 -1 -3 -4 -5 -5 -5
6 7 7 7 7 7 8 8 8 9 9 9 9 9 9 9 9 8 8 7 6 6 6 6 5 5 5 4 3 1 0 -2 -3 -3 -4 -5 -5 -6
4 5 5 6 6 6 7 8 8 9 9 9 9 9 9 9 9 8 8 8 7 7 6 5 4 4 3 3 1 0 -1 -3 -3 -3 -4 -5 -5 -6
3 3 4 5 5 5 6 7 7 8 8 9 9 9 8 8 9 8 8 7 6 5 5 4 4 3 3 2 1 -1 -2 -3 -3 -3 -3 -4 -5 -5
2 2 3 4 4 4 5 5 6 7 8 8 8 8 8 8 8 8 7 5 4 3 3 3 3 2 1 1 -0 -1 -2 -2 -2 -3 -4 -5 -5 -6
0 1 2 3 3 3 3 4 5 6 7 7 7 8 8 7 7 7 7 5 4 2 2 2 2 1 -0 -0 -1 -1 -2 -3 -3 -4 -5 -6 -6 -7
-1 -0 1 2 3 3 3 4 5 6 6 6 7 7 6 5 5 4 4 3 3 2 2 2 1 -0 -1 -1 -2 -2 -3 -3 -3 -4 -4 -5 -6 -7
-1 -0 -0 1 2 3 3 4 5 5 6 6 6 5 5 4 3 2 1 1 1 1 1 0 -1 -1 -2 -2 -2 -2 -2 -3 -4 -4 -4 -5 -6 -7
-2 -0 0 1 2 3 4 4 4 5 5 5 5 4 3 2 1 0 -0 -1 -0 -1 -1 -1 -2 -3 -3 -3 -2 -2 -2 -2 -3 -4 -5 -6 -7 -7
-2 -1 -0 1 2 3 3 4 4 4 5 4 4 2 1 0 0 -0 -1 -1 -1 -2 -2 -2 -3 -3 -3 -3 -3 -2 -3 -4 -4 -5 -6 -6 -6 -7
-3 -2 -1 -0 1 2 2 3 3 3 3 3 2 1 -0 -0 -1 -2 -2 -2 -2 -2 -2 -3 -3 -3 -3 -3 -3 -2 -4 -4 -5 -6 -6 -6 -5 -6
-3 -3 -2 -1 -1 -0 1 1 2 2 2 2 1 -0 -1 -1 -2 -2 -2 -2 -2 -2 -3 -3 -3 -3 -4 -3 -4 -4 -4 -5 -6 -6 -7 -7 -5 -4
-4 -4 -3 -2 -2 -1 -0 0 1 1 1 0 -0 -1 -1 -2 -2 -3 -3 -3 -3 -3 -4 -4 -4 -4 -4 -4 -4 -5 -5 -6 -6 -7 -7 -7 -5 -4
-6 -5 -4 -3 -2 -2 -2 -1 -1 -0 -0 -1 -1 -2 -2 -2 -2 -3 -3 -3 -3 -4 -4 -4 -4 -5 -5 -6 -5 -4 -5 -6 -7 -8 -7 -6 -6 -5
-7 -6 -4 -3 -3 -3 -2 -2 -2 -1 -1 -2 -2 -2 -2 -2 -3 -3 -3 -3 -4 -3 -4 -4 -5 -5 -6 -6 -6 -5 -5 -6 -7 -7 -7 -7 -7 -6
-7 -6 -5 -4 -3 -3 -3 -3 -3 -3 -3 -3 -3 -2 -2 -3 -3 -3 -3 -3 -3 -4 -4 -5 -5 -5 -6 -6 -6 -6 -5 -4 -5 -6 -6 -7 -7 -7
-8 -7 -6 -5 -4 -4 -4 -4 -4 -5 -5 -4 -3 -3 -3 -3 -3 -3 -3 -3 -3 -4 -4 -5 -5 -5 -5 -6 -6 -6 -6 -5 -5 -4 -5 -6 -6 -6
Wind_Speed
18 19 19 17 15 14 14 15 17 19 19 13 11 12 13 13 15 13 11 17 20 20 20 18 18 16 14 13 12 12 12 12 12 14 14 15 15 15
15 18 19 17 15 14 14 15 16 19 20 10 11 10 12 12 14 13 13 18 20 21 20 19 18 16 15 14 13 11 10 10 10 12 13 14 14 15
15 17 19 17 16 15 14 15 16 17 22 19 9 9 9 9 7 7 8 11 12 21 21 20 18 18 17 15 12 10 9 8 10 12 12 13 14 15
16 17 18 16 18 17 16 18 18 18 20 23 13 8 8 8 8 9 9 10 9 18 21 21 20 19 17 14 11 10 9 9 11 12 13 13 15 16
14 17 19 18 20 17 18 19 16 17 17 19 17 8 5 3 5 7 9 7 10 14 19 20 19 17 15 12 11 11 11 11 12 13 13 14 15 16
13 15 17 19 20 19 18 19 18 19 18 18 17 9 5 3 5 6 8 10 10 10 14 14 15 15 14 12 12 12 12 12 13 13 14 15 16 16
15 15 16 19 22 21 19 19 17 18 17 17 17 12 9 5 8 9 12 10 9 6 7 7 7 6 7 10 12 13 13 13 13 14 15 16 16 17
16 17 16 17 19 22 24 25 24 22 20 18 17 17 17 15 12 11 10 8 7 7 8 7 6 6 6 6 10 13 14 14 14 15 16 16 16 17
16 17 16 15 18 17 20 22 23 27 27 22 21 21 18 18 16 16 14 9 7 8 7 5 5 6 6 8 14 15 15 15 15 15 16 17 17 18
17 17 18 19 17 19 19 20 20 19 20 20 21 20 17 15 19 16 13 7 7 4 5 5 5 5 7 6 13 15 15 14 14 15 16 17 18 19
18 18 19 19 22 23 21 21 21 17 12 12 15 14 15 16 18 13 12 10 5 4 3 4 4 3 2 3 7 13 13 12 13 15 16 17 17 17
18 18 20 22 25 26 22 22 22 17 8 4 2 3 4 12 18 14 14 13 5 5 5 5 4 3 2 2 2 2 4 9 13 15 15 16 17 9
18 18 18 26 31 32 30 23 24 20 7 7 7 7 7 7 7 7 7 8 7 4 8 6 4 3 3 1 2 2 3 3 4 7 13 17 17 12
18 18 20 31 35 35 28 26 29 20 6 8 8 8 9 8 9 9 10 8 6 7 10 7 4 4 4 2 3 3 3 3 4 6 6 12 13 15
18 27 33 36 33 25 24 27 21 7 8 8 9 9 9 11 11 11 11 11 11 9 7 5 5 4 4 4 3 2 3 4 5 6 6 6 5 6
19 25 30 28 21 18 18 12 3 4 5 7 8 9 10 10 10 9 8 9 7 5 4 6 6 5 4 4 5 6 4 4 4 5 6 7 7 7
23 17 15 16 15 13 7 3 1 3 5 7 10 11 11 10 9 8 8 7 5 5 4 3 4 4 6 5 6 8 7 7 8 8 7 8 7 7
21 14 15 16 16 15 11 4 1 2 5 7 9 10 10 10 9 8 7 5 6 5 4 4 3 2 4 5 11 9 7 8 7 7 6 9 11 7
15 14 15 15 15 14 10 3 1 4 6 8 9 10 10 9 8 8 8 6 5 4 3 3 3 3 1 3 5 6 6 5 6 7 7 9 12 10
13 14 15 15 14 13 9 2 3 6 8 9 10 10 10 9 9 8 7 6 5 4 3 2 3 4 4 3 4 5 7 8 7 9 9 9 11 15
15 15 15 15 14 11 6 1 3 6 8 10 10 10 10 9 8 7 6 9 5 3 3 2 3 4 3 0 4 6 6 10 12 11 11 10 10 7
15 16 16 16 14 9 3 1 2 4 8 8 8 9 9 8 8 8 6 6 4 3 2 1 1 2 2 3 6 9 10 10 12 17 17 14 7 5
15 16 16 16 14 8 2 2 3 4 4 6 7 8 9 8 7 6 6 5 5 3 1 1 2 2 4 5 7 10 12 12 10 9 7 11 15 20
Wind_Direction
247 247 248 248 244 241 241 239 246 259 258 239 233 226 224 221 214 206 198 202 205 211 210 201 193 198 208 222 236 249 264 277 286 287 288 290 291 293
250 249 249 248 247 243 244 244 241 248 259 249 235 228 222 222 210 199 197 192 197 202 196 190 192 201 213 222 231 245 260 273 280 282 284 286 288 291
267 260 255 248 248 245 244 245 245 243 253 259 238 229 215 207 191 191 180 182 192 193 190 190 196 205 213 220 229 239 247 261 272 277 281 283 284 287
287 283 275 266 256 250 246 245 245 242 246 256 253 223 206 200 191 191 187 189 191 195 193 195 201 209 215 220 227 232 239 256 266 271 276 278 278 280
289 289 287 281 272 263 252 248 246 244 242 248 252 229 198 161 177 200 199 204 196 197 196 199 206 213 217 223 229 237 243 251 259 266 271 270 271 275
289 286 285 283 280 275 267 258 249 245 241 241 245 228 191 165 168 186 199 205 203 189 195 198 208 213 219 228 236 243 245 249 257 263 266 266 267 272
301 294 289 285 280 279 278 274 264 254 246 242 242 229 203 179 199 199 205 196 198 181 181 189 192 202 214 235 240 237 239 245 250 258 264 264 267 273
310 305 299 291 288 284 277 272 265 261 256 250 245 237 224 213 203 198 191 176 198 188 178 193 184 202 202 201 228 235 238 242 251 259 260 261 268 273
314 312 310 305 300 296 292 284 270 257 249 251 255 248 236 216 199 198 196 186 185 167 160 184 191 211 201 212 226 235 240 246 250 251 255 262 267 271
318 316 315 313 308 303 301 297 287 271 255 250 252 254 246 224 199 194 183 131 88 126 141 166 187 200 201 207 231 242 251 248 244 246 256 264 268 271
322 319 315 312 310 312 311 306 298 283 272 262 256 255 241 204 174 155 152 151 141 166 156 152 171 168 189 228 244 251 243 232 239 253 262 266 268 270
321 317 312 309 311 314 312 307 298 288 255 215 144 115 149 167 165 164 163 159 133 156 170 161 157 149 210 270 249 232 232 243 259 267 270 273 272 266
320 315 310 307 307 306 304 298 288 286 240 182 143 121 110 108 110 112 122 145 136 149 164 153 146 156 173 242 301 271 250 248 265 275 281 279 275 266
313 309 306 302 301 299 299 290 287 281 199 163 155 151 142 127 116 106 96 85 87 123 142 135 135 151 147 177 264 288 292 284 278 271 259 269 272 272
307 304 303 300 298 296 290 290 288 234 177 173 168 158 143 132 122 112 102 96 89 102 121 115 126 139 154 183 227 258 304 277 253 254 256 248 244 250
310 307 306 304 300 291 295 299 270 179 170 159 146 138 133 133 133 134 137 131 121 121 130 139 149 159 188 214 236 254 237 265 291 286 275 267 251 240
316 315 322 329 328 321 313 326 33 127 123 126 135 137 137 136 136 140 142 142 142 149 154 170 190 195 205 209 243 253 256 256 259 266 268 272 259 244
324 326 330 329 328 326 316 301 346 97 114 125 132 135 139 139 141 144 147 146 140 135 145 154 133 30 335 270 233 243 248 255 259 256 256 277 282 259
331 328 328 329 327 325 319 302 99 111 117 125 131 135 136 138 145 150 152 147 134 129 134 126 119 122 20 304 301 234 233 260 267 267 261 263 275 278
331 325 325 327 326 326 325 328 126 128 129 134 137 139 141 145 151 154 153 147 140 132 131 139 170 179 192 230 277 286 276 272 271 271 274 270 270 277
329 325 323 325 326 325 326 0 144 146 146 146 146 145 144 145 148 149 150 156 140 133 156 212 222 172 152 6 294 284 268 258 255 268 277 279 281 275
327 325 323 324 326 323 315 155 150 152 153 149 145 139 137 139 144 144 143 142 133 132 154 237 231 145 165 237 269 281 289 289 279 282 275 264 251 241
326 324 323 325 327 319 261 190 169 156 147 140 135 132 132 133 132 134 137 127 117 111 93 348 327 255 235 245 267 284 290 299 310 312 297 275 260 253
Height
1409 1407 1405 1403 1401 1399 1398 1397 1396 1391 1385 1385 1385 1384 1386 1386 1387 1388 1389 1390 1392 1393 1393 1394 1393 1393 1391 1389 1387 1385 1383 1380 1378 1375 1374 1373 1374 1373
1400 1398 1395 1393 1392 1390 1389 1388 1387 1383 1377 1373 1375 1376 1377 1377 1377 1378 1379 1380 1381 1382 1383 1383 1383 1383 1381 1379 1376 1375 1373 1370 1368 1366 1365 1365 1366 1366
1392 1389 1385 1384 1382 1380 1379 1378 1376 1374 1368 1363 1366 1367 1368 1367 1367 1368 1368 1368 1369 1371 1372 1372 1372 1372 1370 1369 1367 1365 1363 1361 1359 1357 1356 1357 1358 1358
1383 1380 1377 1375 1372 1370 1368 1365 1364 1362 1360 1356 1355 1357 1357 1357 1358 1358 1357 1358 1359 1360 1360 1361 1362 1362 1361 1360 1358 1356 1354 1352 1351 1350 1349 1349 1350 1351
1375 1371 1367 1365 1361 1358 1355 1352 1350 1349 1348 1346 1344 1346 1347 1346 1346 1346 1347 1347 1348 1349 1350 1351 1352 1353 1353 1352 1350 1348 1346 1344 1343 1342 1342 1342 1343 1344
1365 1362 1358 1354 1350 1347 1344 1341 1338 1336 1334 1333 1332 1334 1334 1333 1335 1335 1334 1336 1337 1338 1339 1340 1342 1344 1344 1343 1341 1339 1338 1336 1335 1336 1336 1336 1337 1337
1354 1351 1347 1344 1340 1338 1335 1331 1328 1324 1321 1320 1319 1320 1320 1321 1321 1322 1323 1324 1325 1328 1330 1331 1333 1335 1335 1334 1333 1332 1330 1329 1328 1328 1329 1330 1331 1331
1346 1341 1337 1333 1330 1327 1323 1320 1317 1314 1310 1307 1305 1305 1304 1306 1308 1310 1311 1311 1313 1318 1320 1321 1323 1325 1326 1325 1324 1324 1323 1321 1321 1322 1323 1324 1324 1323
1339 1333 1328 1324 1321 1317 1312 1307 1303 1300 1299 1298 1295 1293 1293 1292 1294 1296 1298 1299 1301 1306 1309 1311 1314 1315 1316 1315 1315 1315 1315 1314 1315 1315 1316 1316 1316 1316
1331 1326 1320 1315 1311 1308 1303 1297 1291 1288 1286 1285 1284 1282 1282 1281 1279 1281 1285 1286 1291 1295 1299 1303 1305 1306 1306 1307 1307 1307 1307 1308 1309 1309 1309 1309 1309 1309
1323 1319 1314 1308 1303 1299 1294 1287 1281 1277 1275 1273 1272 1271 1270 1270 1269 1270 1273 1277 1281 1285 1291 1296 1297 1299 1299 1299 1299 1300 1301 1302 1303 1303 1303 1303 1303 1302
1316 1310 1305 1300 1294 1289 1284 1278 1272 1267 1265 1262 1261 1260 1259 1260 1259 1260 1263 1266 1271 1279 1285 1290 1291 1293 1293 1292 1293 1294 1296 1296 1297 1297 1297 1297 1296 1295
1310 1302 1296 1290 1284 1278 1273 1267 1262 1259 1255 1252 1251 1250 1250 1251 1251 1254 1257 1262 1267 1274 1280 1284 1285 1287 1287 1287 1288 1289 1290 1290 1290 1290 1290 1289 1289 1288
1304 1297 1289 1281 1274 1267 1260 1255 1251 1248 1245 1242 1242 1241 1242 1244 1246 1251 1255 1260 1264 1271 1276 1278 1279 1281 1281 1281 1283 1284 1284 1284 1284 1283 1283 1283 1282 1281
1298 1290 1281 1271 1263 1255 1249 1245 1241 1238 1235 1234 1233 1234 1236 1238 1243 1248 1254 1258 1262 1267 1271 1273 1274 1275 1276 1277 1277 1277 1278 1278 1278 1277 1277 1276 1275 1274
1290 1281 1272 1263 1255 1248 1242 1237 1233 1230 1229 1228 1229 1230 1232 1236 1241 1246 1251 1255 1259 1263 1266 1268 1270 1271 1272 1272 1272 1271 1272 1272 1272 1272 1270 1268 1267 1266
1284 1274 1265 1257 1248 1242 1237 1233 1230 1228 1226 1226 1227 1228 1231 1235 1240 1245 1249 1253 1256 1260 1262 1265 1267 1268 1268 1268 1267 1266 1266 1266 1266 1265 1262 1259 1258 1258
1280 1271 1263 1255 1248 1242 1236 1232 1229 1226 1225 1225 1226 1228 1231 1234 1239 1243 1247 1251 1255 1258 1260 1263 1265 1265 1266 1265 1264 1262 1261 1260 1259 1258 1255 1252 1248 1248
1276 1268 1262 1255 1248 1241 1235 1230 1227 1225 1224 1224 1225 1228 1231 1236 1240 1243 1247 1251 1254 1257 1259 1261 1263 1263 1263 1261 1260 1259 1257 1254 1251 1249 1247 1244 1239 1237
1273 1267 1260 1254 1247 1240 1234 1229 1225 1223 1222 1223 1225 1228 1232 1236 1241 1244 1248 1251 1254 1256 1259 1261 1262 1261 1260 1259 1256 1254 1253 1248 1243 1239 1237 1234 1231 1229
1271 1264 1258 1252 1245 1238 1233 1228 1225 1222 1222 1222 1225 1229 1233 1237 1241 1246 1249 1251 1254 1257 1259 1260 1260 1260 1258 1256 1253 1249 1246 1243 1238 1233 1228 1225 1222 1220
1270 1263 1256 1250 1243 1237 1232 1228 1225 1223 1223 1224 1226 1230 1234 1239 1243 1247 1250 1252 1255 1257 1259 1260 1259 1258 1256 1253 1248 1243 1239 1236 1232 1228 1223 1219 1217 1213
1268 1261 1255 1248 1242 1236 1231 1228 1225 1224 1225 1226 1229 1232 1236 1240 1245 1248 1251 1254 1256 1258 1259 1259 1258 1256 1253 1249 1245 1240 1235 1230 1225 1221 1218 1214 1211 1209